TimeCDT,TemperatureF,Dew PointF,Humidity,Sea Level PressureIn,VisibilityMPH,Wind Direction,Wind SpeedMPH,Gust SpeedMPH,PrecipitationIn,Events,Conditions,WindDirDegrees,DateUTC
12:15 AM,33.3,27.7,80,30.19,10.0,Calm,Calm,-,N/A,,Clear,0,2013-03-20 05:15:00
12:35 AM,33.1,22.6,66,30.18,10.0,Calm,Calm,-,N/A,,Clear,0,2013-03-20 05:35:00
12:55 AM,32.2,26.6,80,30.18,10.0,Calm,Calm,-,N/A,,Clear,0,2013-03-20 05:55:00
1:15 AM,32.5,26.1,77,30.18,10.0,Calm,Calm,-,N/A,,Clear,0,2013-03-20 06:15:00
1:35 AM,31.8,26.2,80,30.19,10.0,Calm,Calm,-,N/A,,Clear,0,2013-03-20 06:35:00
1:55 AM,31.5,24.8,76,30.19,10.0,West,3.5,-,N/A,,Clear,260,2013-03-20 06:55:00
2:15 AM,31.1,26.6,83,30.18,10.0,WSW,3.5,-,N/A,,Clear,250,2013-03-20 07:15:00
2:35 AM,31.6,27.1,83,30.18,10.0,West,4.6,-,N/A,,Clear,270,2013-03-20 07:35:00
2:55 AM,32.4,25.7,76,30.18,10.0,West,4.6,-,N/A,,Clear,270,2013-03-20 07:55:00
3:15 AM,33.8,24.6,69,30.17,10.0,West,3.5,-,N/A,,Clear,260,2013-03-20 08:15:00
3:35 AM,32.9,25.2,73,30.16,10.0,West,3.5,-,N/A,,Clear,260,2013-03-20 08:35:00
3:55 AM,30.2,24.8,80,30.16,10.0,West,4.6,-,N/A,,Clear,280,2013-03-20 08:55:00
4:15 AM,32.0,25.0,75,30.16,10.0,WNW,3.5,-,N/A,,Clear,300,2013-03-20 09:15:00
4:35 AM,35.4,24.8,65,30.16,10.0,West,3.5,-,N/A,,Clear,280,2013-03-20 09:35:00
4:55 AM,35.2,24.1,64,30.16,10.0,West,3.5,-,N/A,,Clear,270,2013-03-20 09:55:00
5:15 AM,34.7,23.9,65,30.16,10.0,West,4.6,-,N/A,,Clear,280,2013-03-20 10:15:00
5:35 AM,35.2,23.9,63,30.16,10.0,West,4.6,-,N/A,,Clear,280,2013-03-20 10:35:00
5:55 AM,33.8,25.2,71,30.17,10.0,WNW,5.8,-,N/A,,Clear,300,2013-03-20 10:55:00
6:15 AM,34.5,26.6,73,30.18,10.0,WNW,5.8,-,N/A,,Clear,290,2013-03-20 11:15:00
6:35 AM,34.2,27.1,75,30.19,10.0,WNW,5.8,-,N/A,,Clear,290,2013-03-20 11:35:00
6:55 AM,34.2,27.1,75,30.19,10.0,West,4.6,-,N/A,,Clear,280,2013-03-20 11:55:00
7:15 AM,33.8,27.5,78,30.18,10.0,WNW,4.6,-,N/A,,Clear,290,2013-03-20 12:15:00
7:35 AM,34.3,28.4,79,30.19,10.0,WNW,5.8,-,N/A,,Clear,300,2013-03-20 12:35:00
7:55 AM,35.2,29.5,80,30.20,10.0,NW,9.2,-,N/A,,Clear,310,2013-03-20 12:55:00
8:15 AM,36.1,30.6,80,30.20,10.0,NW,8.1,-,N/A,,Clear,310,2013-03-20 13:15:00
8:35 AM,36.9,31.3,80,30.20,10.0,NW,12.7,19.6,N/A,,Clear,320,2013-03-20 13:35:00
8:55 AM,37.6,31.8,80,30.20,10.0,WNW,9.2,-,N/A,,Clear,300,2013-03-20 13:55:00
9:15 AM,37.6,31.3,78,30.20,10.0,NW,10.4,17.3,N/A,,Scattered Clouds,310,2013-03-20 14:15:00
9:35 AM,38.3,30.9,75,30.21,10.0,NNW,12.7,17.3,N/A,,Mostly Cloudy,330,2013-03-20 14:35:00
9:55 AM,38.5,29.8,71,30.21,10.0,NNW,8.1,17.3,N/A,,Overcast,330,2013-03-20 14:55:00
10:35 AM,41.0,30.0,65,30.21,10.0,West,11.5,17.3,N/A,,Overcast,280,2013-03-20 15:35:00
10:55 AM,42.6,27.9,56,30.22,10.0,WNW,12.7,20.7,N/A,,Mostly Cloudy,290,2013-03-20 15:55:00
11:15 AM,41.9,26.1,53,30.22,10.0,NW,15.0,26.5,N/A,,Mostly Cloudy,320,2013-03-20 16:15:00
11:55 AM,41.5,23.2,48,30.20,10.0,WNW,12.7,17.3,N/A,,Overcast,290,2013-03-20 16:55:00
12:15 PM,42.3,23.4,47,30.19,10.0,NW,10.4,18.4,N/A,,Overcast,310,2013-03-20 17:15:00
12:35 PM,42.4,24.3,49,30.18,10.0,NW,12.7,18.4,N/A,,Overcast,320,2013-03-20 17:35:00
12:55 PM,42.6,25.3,51,30.18,10.0,NW,10.4,18.4,N/A,,Mostly Cloudy,320,2013-03-20 17:55:00
1:15 PM,43.3,26.1,51,30.17,10.0,NW,12.7,20.7,N/A,,Scattered Clouds,320,2013-03-20 18:15:00
1:35 PM,41.5,26.8,56,30.16,10.0,NNW,12.7,17.3,N/A,,Mostly Cloudy,340,2013-03-20 18:35:00
1:55 PM,42.6,24.1,48,30.15,10.0,NNW,18.4,24.2,N/A,,Overcast,340,2013-03-20 18:55:00
2:15 PM,43.0,22.8,45,30.14,10.0,WNW,13.8,25.3,N/A,,Scattered Clouds,300,2013-03-20 19:15:00
2:35 PM,42.6,22.8,46,30.13,10.0,NNW,15.0,23.0,N/A,,Scattered Clouds,330,2013-03-20 19:35:00
2:55 PM,42.3,22.3,45,30.13,10.0,NNW,16.1,23.0,N/A,,Scattered Clouds,340,2013-03-20 19:55:00
3:15 PM,42.1,19.9,41,30.12,10.0,NNW,13.8,24.2,N/A,,Scattered Clouds,330,2013-03-20 20:15:00
3:35 PM,42.1,19.4,40,30.12,10.0,NNW,13.8,21.9,N/A,,Scattered Clouds,330,2013-03-20 20:35:00
3:55 PM,42.4,19.8,40,30.11,10.0,NW,11.5,21.9,N/A,,Scattered Clouds,320,2013-03-20 20:55:00
4:15 PM,41.2,18.9,41,30.11,10.0,NNW,9.2,18.4,N/A,,Scattered Clouds,340,2013-03-20 21:15:00
4:55 PM,40.8,19.6,43,30.10,10.0,North,13.8,19.6,N/A,,Clear,350,2013-03-20 21:55:00
5:15 PM,40.8,19.4,42,30.10,10.0,NNW,12.7,16.1,N/A,,Clear,340,2013-03-20 22:15:00
5:35 PM,39.9,18.9,43,30.10,10.0,NNW,9.2,-,N/A,,Clear,340,2013-03-20 22:35:00
5:55 PM,39.4,18.5,43,30.10,10.0,NNW,13.8,18.4,N/A,,Clear,330,2013-03-20 22:55:00
6:15 PM,38.5,18.7,45,30.11,10.0,NNW,12.7,17.3,N/A,,Clear,340,2013-03-20 23:15:00
6:35 PM,37.6,18.9,47,30.11,10.0,North,11.5,-,N/A,,Clear,350,2013-03-20 23:35:00
6:55 PM,36.3,19.0,50,30.11,10.0,North,10.4,-,N/A,,Clear,350,2013-03-20 23:55:00
7:15 PM,34.7,19.0,53,30.11,10.0,North,6.9,-,N/A,,Clear,350,2013-03-21 00:15:00
7:55 PM,33.8,19.0,55,30.11,10.0,NNW,5.8,-,N/A,,Clear,340,2013-03-21 00:55:00
8:15 PM,32.7,19.0,57,30.12,10.0,North,5.8,-,N/A,,Clear,350,2013-03-21 01:15:00
8:35 PM,32.2,18.5,57,30.12,10.0,North,6.9,-,N/A,,Clear,350,2013-03-21 01:35:00
8:55 PM,32.0,17.6,55,30.12,10.0,North,6.9,-,N/A,,Clear,350,2013-03-21 01:55:00
9:15 PM,31.8,17.4,55,30.13,10.0,North,4.6,-,N/A,,Clear,360,2013-03-21 02:15:00
9:35 PM,31.1,16.7,55,30.12,10.0,North,6.9,-,N/A,,Clear,350,2013-03-21 02:35:00
9:55 PM,30.7,16.7,56,30.12,10.0,North,6.9,-,N/A,,Clear,360,2013-03-21 02:55:00
10:15 PM,30.2,16.7,57,30.12,10.0,North,6.9,-,N/A,,Clear,350,2013-03-21 03:15:00
10:35 PM,29.5,16.3,58,30.13,10.0,North,5.8,-,N/A,,Clear,350,2013-03-21 03:35:00
10:55 PM,29.3,16.2,58,30.13,10.0,North,4.6,-,N/A,,Clear,350,2013-03-21 03:55:00
11:15 PM,28.8,15.8,58,30.12,10.0,North,4.6,-,N/A,,Clear,350,2013-03-21 04:15:00
11:35 PM,28.4,15.4,58,30.12,10.0,North,4.6,-,N/A,,Clear,350,2013-03-21 04:35:00
11:55 PM,28.0,15.1,58,30.12,10.0,NNW,3.5,-,N/A,,Clear,340,2013-03-21 04:55:00